Location: ???????
(55.3754°N, 39.3545°E)
Time: 07:53:37
(UTC+00:00)

Cosmos 1937 Rocket - Pass Details

Date: 14 April 2026
Orbit: 742 x 775 km, 74.0° (Epoch: 14 May)

Event Time Altitude Azimuth Distance (km) Brightness Sun altitude
Rises 17:23:17 0° 208° (SSW) 3,244 6.7 -8.3°
Reaches altitude 10° 17:25:40 10° 210° (SSW) 2,321 6.0 -8.6°
Maximum altitude 17:30:57 82° 298° (WNW) 789 3.7 -9.2°
Drops below altitude 10° 17:36:16 10° 27° (NNE) 2,327 6.1 -9.8°
Sets 17:38:39 0° 28° (NNE) 3,254 6.8 -10.1°
